{"data":{"norad_id":66595,"epoch":"2026-09-19T20:41:02.446368Z","epoch_age_seconds":141643,"freshness":"FRESH","line1":"1 66595U 25270H   26262.86183387  .00014792  00000+0  54572-3 0  9997","line2":"2 66595  43.0011  39.4493 0001944 275.1721  84.8909 15.27595779 47519","mean_motion":15.27595779,"eccentricity":0.0001944,"inclination_deg":43.0011,"raan_deg":39.4493,"arg_perigee_deg":275.1721,"mean_anomaly_deg":84.8909,"bstar":0.00054572,"rev_number":4751,"period_min":94.265775003821,"perigee_km":481.66804305175,"apogee_km":484.33565383602,"semimajor_km":6861.1388484439,"source":"CELESTRAK","updated_at":"2026-09-21T09:00:35.977054Z"}}